Location: Unnamed
(47.6264°N, 122.3366°W)
Time: 07:21:49
(UTC-07:00)

X-37B - Pass Details

Date: 30 June 2021
Orbit: 383 x 392 km, 45.0° (Epoch: 01 July)

Event Time Altitude Azimuth Distance (km) Brightness Sun altitude
Rises 22:22:15 0° 271° (W) 2,259 5.1 -9.5°
Reaches altitude 10° 22:24:22 10° 264° (W) 1,404 3.9 -9.8°
Maximum altitude 22:27:23 44° 191° (S) 543 1.0 -10.1°
Enters shadow 22:29:44 15° 122° (ESE) 1,139 2.4 -10.3°
